Time,TemperatureF,DewpointF,PressureIn,WindDirection,WindDirectionDegrees,WindSpeedMPH,WindSpeedGustMPH,Humidity,HourlyPrecipIn,Conditions,Clouds,dailyrainin,SoftwareType,DateUTC
2013-07-28 00:00:00,77.4,68.5,30.70,East,84,0.0,1.0,74,0.00,,SKC,0.00,VWS V14.01,2013-07-28 05:00:00,
2013-07-28 00:01:00,76.4,68.3,30.70,East,84,0.0,1.0,76,0.00,,SKC,0.00,VWS V14.01,2013-07-28 05:01:00,
2013-07-28 00:07:00,76.2,68.1,30.70,East,84,0.0,0.0,76,0.00,,SKC,0.00,VWS V14.01,2013-07-28 05:07:00,
2013-07-28 00:13:00,76.1,68.4,30.70,East,84,0.0,1.0,77,0.00,,SKC,0.00,VWS V14.01,2013-07-28 05:13:00,
2013-07-28 00:19:00,75.8,68.1,30.70,East,84,0.0,1.0,77,0.00,,SKC,0.00,VWS V14.01,2013-07-28 05:19:00,
2013-07-28 00:25:00,75.6,67.9,30.70,East,84,0.0,1.0,77,0.00,,SKC,0.00,VWS V14.01,2013-07-28 05:25:00,
2013-07-28 00:30:00,76.9,68.0,30.70,East,84,0.0,1.0,74,0.00,,SKC,0.00,VWS V14.01,2013-07-28 05:30:00,
2013-07-28 00:31:00,75.4,67.7,30.70,East,84,0.0,1.0,77,0.00,,SKC,0.00,VWS V14.01,2013-07-28 05:31:00,
2013-07-28 00:37:00,75.3,68.0,30.70,East,84,0.0,0.0,78,0.00,,SKC,0.00,VWS V14.01,2013-07-28 05:37:00,
2013-07-28 00:43:00,75.3,68.0,30.70,East,84,0.0,0.0,78,0.00,,SKC,0.00,VWS V14.01,2013-07-28 05:43:00,
2013-07-28 00:49:00,75.1,67.8,30.70,East,84,0.0,1.0,78,0.00,,SKC,0.00,VWS V14.01,2013-07-28 05:49:00,
2013-07-28 00:55:00,75.0,67.7,30.70,East,84,0.0,1.0,78,0.00,,SKC,0.00,VWS V14.01,2013-07-28 05:55:00,
2013-07-28 01:00:00,76.4,68.3,30.70,East,84,0.0,1.0,76,0.00,,SKC,0.00,VWS V14.01,2013-07-28 06:00:00,
2013-07-28 01:01:00,74.8,67.9,30.70,East,84,0.0,1.0,79,0.00,,SKC,0.00,VWS V14.01,2013-07-28 06:01:00,
2013-07-28 01:07:00,74.7,67.8,30.70,East,84,0.0,1.0,79,0.00,,SKC,0.00,VWS V14.01,2013-07-28 06:07:00,
2013-07-28 01:13:00,74.5,67.6,30.70,East,84,1.0,1.0,79,0.00,,SKC,0.00,VWS V14.01,2013-07-28 06:13:00,
2013-07-28 01:19:00,74.4,67.5,30.70,East,84,0.0,1.0,79,0.00,,SKC,0.00,VWS V14.01,2013-07-28 06:19:00,
2013-07-28 01:25:00,74.3,67.4,30.70,East,84,0.0,1.0,79,0.00,,SKC,0.00,VWS V14.01,2013-07-28 06:25:00,
2013-07-28 01:30:00,75.4,67.7,30.70,East,84,0.0,1.0,77,0.00,,SKC,0.00,VWS V14.01,2013-07-28 06:30:00,
2013-07-28 01:31:00,74.3,67.4,30.70,East,84,0.0,1.0,79,0.00,,SKC,0.00,VWS V14.01,2013-07-28 06:31:00,
2013-07-28 01:37:00,74.2,67.3,30.70,East,84,0.0,1.0,79,0.00,,SKC,0.00,VWS V14.01,2013-07-28 06:37:00,
2013-07-28 01:43:00,74.0,67.1,30.70,East,84,0.0,1.0,79,0.00,,SKC,0.00,VWS V14.01,2013-07-28 06:43:00,
2013-07-28 01:49:00,73.9,67.3,30.70,East,84,0.0,1.0,80,0.00,,SKC,0.00,VWS V14.01,2013-07-28 06:49:00,
2013-07-28 01:55:00,73.7,67.2,30.70,East,84,0.0,2.0,80,0.00,,SKC,0.00,VWS V14.01,2013-07-28 06:55:00,
2013-07-28 02:00:00,74.8,67.9,30.70,East,84,0.0,1.0,79,0.00,,SKC,0.00,VWS V14.01,2013-07-28 07:00:00,
2013-07-28 02:01:00,73.5,67.3,30.70,East,84,0.0,2.0,81,0.00,,SKC,0.00,VWS V14.01,2013-07-28 07:01:00,
2013-07-28 02:07:00,73.4,67.2,30.70,East,84,0.0,1.0,81,0.00,,SKC,0.00,VWS V14.01,2013-07-28 07:07:00,
2013-07-28 02:14:00,73.3,67.1,30.70,East,84,0.0,3.0,81,0.00,,SKC,0.00,VWS V14.01,2013-07-28 07:14:00,
2013-07-28 02:20:00,73.3,67.1,30.70,East,84,1.0,3.0,81,0.00,,SKC,0.00,VWS V14.01,2013-07-28 07:20:00,
2013-07-28 02:26:00,73.3,67.1,30.70,East,84,0.0,3.0,81,0.00,,SKC,0.00,VWS V14.01,2013-07-28 07:26:00,
2013-07-28 02:30:00,74.3,67.4,30.70,East,84,0.0,1.0,79,0.00,,SKC,0.00,VWS V14.01,2013-07-28 07:30:00,
2013-07-28 02:32:00,73.2,67.0,30.70,East,84,0.0,3.0,81,0.00,,SKC,0.00,VWS V14.01,2013-07-28 07:32:00,
2013-07-28 02:38:00,73.1,66.9,30.70,East,84,0.0,1.0,81,0.00,,SKC,0.00,VWS V14.01,2013-07-28 07:38:00,
2013-07-28 02:44:00,72.9,66.7,30.70,East,84,0.0,1.0,81,0.00,,SKC,0.00,VWS V14.01,2013-07-28 07:44:00,
2013-07-28 02:50:00,72.7,66.5,30.70,East,84,0.0,1.0,81,0.00,,SKC,0.00,VWS V14.01,2013-07-28 07:50:00,
2013-07-28 02:56:00,72.6,66.4,30.70,East,84,0.0,1.0,81,0.00,,SKC,0.00,VWS V14.01,2013-07-28 07:56:00,
2013-07-28 03:00:00,73.5,67.3,30.70,East,84,0.0,2.0,81,0.00,,SKC,0.00,VWS V14.01,2013-07-28 08:00:00,
2013-07-28 03:01:00,72.4,66.6,30.70,East,84,0.0,1.0,82,0.00,,SKC,0.00,VWS V14.01,2013-07-28 08:01:00,
2013-07-28 03:08:00,72.3,66.5,30.70,East,84,1.0,1.0,82,0.00,,SKC,0.00,VWS V14.01,2013-07-28 08:08:00,
2013-07-28 03:14:00,72.2,66.4,30.70,East,84,0.0,1.0,82,0.00,,SKC,0.00,VWS V14.01,2013-07-28 08:14:00,
2013-07-28 03:20:00,72.2,66.8,30.70,East,84,0.0,1.0,83,0.00,,SKC,0.00,VWS V14.01,2013-07-28 08:20:00,
2013-07-28 03:26:00,72.0,66.6,30.70,East,84,0.0,1.0,83,0.00,,SKC,0.00,VWS V14.01,2013-07-28 08:26:00,
2013-07-28 03:30:00,73.2,67.0,30.70,East,84,0.0,3.0,81,0.00,,SKC,0.00,VWS V14.01,2013-07-28 08:30:00,
2013-07-28 03:31:00,71.8,66.4,30.70,East,84,0.0,1.0,83,0.00,,SKC,0.00,VWS V14.01,2013-07-28 08:31:00,
2013-07-28 03:38:00,71.7,66.3,30.70,East,84,0.0,1.0,83,0.00,,SKC,0.00,VWS V14.01,2013-07-28 08:38:00,
2013-07-28 03:44:00,71.5,66.4,30.70,East,84,0.0,1.0,84,0.00,,SKC,0.00,VWS V14.01,2013-07-28 08:44:00,
2013-07-28 03:50:00,71.3,66.2,30.70,East,84,1.0,1.0,84,0.00,,SKC,0.00,VWS V14.01,2013-07-28 08:50:00,
2013-07-28 03:56:00,71.2,66.1,30.70,East,84,0.0,1.0,84,0.00,,SKC,0.00,VWS V14.01,2013-07-28 08:56:00,
2013-07-28 04:00:00,72.4,66.6,30.70,East,84,0.0,1.0,82,0.00,,SKC,0.00,VWS V14.01,2013-07-28 09:00:00,
2013-07-28 04:02:00,71.0,66.3,30.70,East,84,0.0,1.0,85,0.00,,SKC,0.00,VWS V14.01,2013-07-28 09:02:00,
2013-07-28 04:08:00,70.9,66.2,30.70,East,84,0.0,1.0,85,0.00,,SKC,0.00,VWS V14.01,2013-07-28 09:08:00,
2013-07-28 04:14:00,70.8,66.1,30.70,East,84,0.0,1.0,85,0.00,,SKC,0.00,VWS V14.01,2013-07-28 09:14:00,
2013-07-28 04:20:00,70.8,66.4,30.70,East,84,0.0,1.0,86,0.00,,SKC,0.00,VWS V14.01,2013-07-28 09:20:00,
2013-07-28 04:29:00,70.6,66.2,30.70,East,84,0.0,1.0,86,0.00,,SKC,0.00,VWS V14.01,2013-07-28 09:29:00,
2013-07-28 04:30:00,71.8,66.4,30.70,East,84,0.0,1.0,83,0.00,,SKC,0.00,VWS V14.01,2013-07-28 09:30:00,
2013-07-28 04:35:00,70.5,66.1,30.70,East,84,0.0,0.0,86,0.00,,SKC,0.00,VWS V14.01,2013-07-28 09:35:00,
2013-07-28 04:41:00,70.5,66.1,30.70,East,84,0.0,1.0,86,0.00,,SKC,0.00,VWS V14.01,2013-07-28 09:41:00,
2013-07-28 04:47:00,70.4,66.3,30.70,East,84,0.0,1.0,87,0.00,,SKC,0.00,VWS V14.01,2013-07-28 09:47:00,
2013-07-28 04:53:00,70.3,66.2,30.70,East,84,0.0,1.0,87,0.00,,SKC,0.00,VWS V14.01,2013-07-28 09:53:00,
2013-07-28 04:59:00,70.3,66.2,30.70,East,84,0.0,1.0,87,0.00,,SKC,0.00,VWS V14.01,2013-07-28 09:59:00,
2013-07-28 05:00:00,71.0,66.3,30.70,East,84,0.0,1.0,85,0.00,,SKC,0.00,VWS V14.01,2013-07-28 10:00:00,
2013-07-28 05:05:00,70.3,66.2,30.70,East,84,0.0,1.0,87,0.00,,SKC,0.00,VWS V14.01,2013-07-28 10:05:00,
2013-07-28 05:11:00,70.3,66.2,30.70,East,84,0.0,1.0,87,0.00,,SKC,0.00,VWS V14.01,2013-07-28 10:11:00,
2013-07-28 05:17:00,70.3,66.2,30.70,East,84,0.0,1.0,87,0.00,,SKC,0.00,VWS V14.01,2013-07-28 10:17:00,
2013-07-28 05:23:00,70.3,66.2,30.70,East,84,0.0,1.0,87,0.00,,SKC,0.00,VWS V14.01,2013-07-28 10:23:00,
2013-07-28 05:29:00,70.3,66.2,30.70,East,84,0.0,1.0,87,0.00,,SKC,0.00,VWS V14.01,2013-07-28 10:29:00,
2013-07-28 05:30:00,70.6,66.2,30.70,East,84,0.0,1.0,86,0.00,,SKC,0.00,VWS V14.01,2013-07-28 10:30:00,
2013-07-28 05:33:00,70.3,66.2,30.70,East,84,0.0,0.0,87,0.00,,SKC,0.00,VWS V14.01,2013-07-28 10:33:00,
2013-07-28 05:39:00,70.3,66.2,30.70,East,84,0.0,1.0,87,0.00,,SKC,0.00,VWS V14.01,2013-07-28 10:39:00,
2013-07-28 05:45:00,70.3,66.2,30.70,East,84,0.0,1.0,87,0.00,,SKC,0.00,VWS V14.01,2013-07-28 10:45:00,
2013-07-28 05:51:00,70.3,66.2,30.70,East,84,0.0,1.0,87,0.00,,SKC,0.00,VWS V14.01,2013-07-28 10:51:00,
2013-07-28 05:57:00,70.3,66.6,30.70,East,84,0.0,1.0,88,0.00,,SKC,0.00,VWS V14.01,2013-07-28 10:57:00,
2013-07-28 06:00:00,70.3,66.2,30.70,East,84,0.0,1.0,87,0.00,,SKC,0.00,VWS V14.01,2013-07-28 11:00:00,
2013-07-28 06:03:00,70.3,66.6,30.70,East,84,0.0,1.0,88,0.00,,SKC,0.00,VWS V14.01,2013-07-28 11:03:00,
2013-07-28 06:09:00,70.4,66.7,30.70,East,84,0.0,1.0,88,0.00,,SKC,0.00,VWS V14.01,2013-07-28 11:09:00,
2013-07-28 06:15:00,70.4,66.7,30.70,East,84,0.0,1.0,88,0.00,,SKC,0.00,VWS V14.01,2013-07-28 11:15:00,
2013-07-28 06:21:00,70.3,66.6,30.70,East,84,0.0,1.0,88,0.00,,SKC,0.00,VWS V14.01,2013-07-28 11:21:00,
2013-07-28 06:27:00,70.3,66.6,30.70,East,84,0.0,1.0,88,0.00,,SKC,0.00,VWS V14.01,2013-07-28 11:27:00,
2013-07-28 06:30:00,70.3,66.2,30.70,East,84,0.0,1.0,87,0.00,,SKC,0.00,VWS V14.01,2013-07-28 11:30:00,
2013-07-28 06:33:00,70.3,66.9,30.70,East,84,0.0,0.0,89,0.00,,SKC,0.00,VWS V14.01,2013-07-28 11:33:00,
2013-07-28 06:39:00,70.1,66.4,30.70,East,84,0.0,0.0,88,0.00,,SKC,0.00,VWS V14.01,2013-07-28 11:39:00,
2013-07-28 06:45:00,70.1,66.7,30.70,East,84,0.0,0.0,89,0.00,,SKC,0.00,VWS V14.01,2013-07-28 11:45:00,
2013-07-28 06:51:00,70.2,66.8,30.70,East,84,0.0,0.0,89,0.00,,SKC,0.00,VWS V14.01,2013-07-28 11:51:00,
2013-07-28 06:57:00,70.2,66.8,30.70,East,84,0.0,0.0,89,0.00,,SKC,0.00,VWS V14.01,2013-07-28 11:57:00,
2013-07-28 07:00:00,70.3,66.6,30.70,East,84,0.0,1.0,88,0.00,,SKC,0.00,VWS V14.01,2013-07-28 12:00:00,
2013-07-28 07:03:00,70.3,66.9,30.70,East,84,0.0,0.0,89,0.00,,SKC,0.00,VWS V14.01,2013-07-28 12:03:00,
2013-07-28 07:09:00,70.5,67.4,30.70,East,84,0.0,0.0,90,0.00,,SKC,0.00,VWS V14.01,2013-07-28 12:09:00,
2013-07-28 07:15:00,70.8,67.4,30.70,East,84,0.0,0.0,89,0.00,,SKC,0.00,VWS V14.01,2013-07-28 12:15:00,
2013-07-28 07:24:00,71.0,67.6,30.70,East,84,0.0,0.0,89,0.00,,SKC,0.00,VWS V14.01,2013-07-28 12:24:00,
2013-07-28 07:30:00,70.9,67.2,30.70,East,84,0.0,0.0,88,0.00,,SKC,0.00,VWS V14.01,2013-07-28 12:30:00,
2013-07-28 07:39:00,70.8,67.4,30.70,East,84,0.0,0.0,89,0.00,,SKC,0.00,VWS V14.01,2013-07-28 12:39:00,
2013-07-28 07:45:00,70.9,67.5,30.70,East,84,0.0,0.0,89,0.00,,SKC,0.00,VWS V14.01,2013-07-28 12:45:00,
2013-07-28 07:51:00,71.2,67.8,30.70,East,84,0.0,0.0,89,0.00,,SKC,0.00,VWS V14.01,2013-07-28 12:51:00,
2013-07-28 07:57:00,71.7,68.3,30.70,East,84,0.0,0.0,89,0.00,,SKC,0.00,VWS V14.01,2013-07-28 12:57:00,
2013-07-28 08:00:00,70.3,66.9,30.70,East,84,0.0,0.0,89,0.00,,SKC,0.00,VWS V14.01,2013-07-28 13:00:00,
2013-07-28 08:03:00,72.2,68.8,30.70,East,84,1.0,3.0,89,0.00,,SKC,0.00,VWS V14.01,2013-07-28 13:03:00,
2013-07-28 08:09:00,72.6,68.8,30.70,East,84,1.0,3.0,88,0.00,,SKC,0.00,VWS V14.01,2013-07-28 13:09:00,
2013-07-28 08:15:00,73.3,69.5,30.70,SSW,211,0.0,3.0,88,0.00,,SKC,0.00,VWS V14.01,2013-07-28 13:15:00,
2013-07-28 08:22:00,74.0,69.9,30.70,SSW,198,1.0,3.0,87,0.00,,SKC,0.00,VWS V14.01,2013-07-28 13:22:00,
2013-07-28 08:28:00,74.7,70.2,30.70,SSW,197,0.0,4.0,86,0.00,,SKC,0.00,VWS V14.01,2013-07-28 13:28:00,
2013-07-28 08:30:00,70.9,67.5,30.70,East,84,0.0,0.0,89,0.00,,SKC,0.00,VWS V14.01,2013-07-28 13:30:00,
2013-07-28 08:34:00,75.5,70.3,30.70,SSW,195,1.0,3.0,84,0.00,,SKC,0.00,VWS V14.01,2013-07-28 13:34:00,
2013-07-28 08:40:00,75.6,70.1,30.70,SE,140,3.0,5.0,83,0.00,,SKC,0.00,VWS V14.01,2013-07-28 13:40:00,
2013-07-28 08:46:00,76.2,70.3,30.70,SSE,158,1.0,5.0,82,0.00,,SKC,0.00,VWS V14.01,2013-07-28 13:46:00,
2013-07-28 08:52:00,76.5,70.2,30.70,South,184,3.0,5.0,81,0.00,,SKC,0.00,VWS V14.01,2013-07-28 13:52:00,
2013-07-28 08:58:00,76.9,70.6,30.70,SSW,202,5.0,7.0,81,0.00,,SKC,0.00,VWS V14.01,2013-07-28 13:58:00,
2013-07-28 09:00:00,72.1,68.7,30.70,East,84,0.0,3.0,89,0.00,,SKC,0.00,VWS V14.01,2013-07-28 14:00:00,
2013-07-28 09:04:00,76.9,70.3,30.70,SSE,152,1.0,7.0,80,0.00,,SKC,0.00,VWS V14.01,2013-07-28 14:04:00,
2013-07-28 09:10:00,77.1,70.5,30.70,South,184,5.0,7.0,80,0.00,,SKC,0.00,VWS V14.01,2013-07-28 14:10:00,
2013-07-28 09:16:00,77.5,70.5,30.70,SSE,151,5.0,7.0,79,0.00,,SKC,0.00,VWS V14.01,2013-07-28 14:16:00,
2013-07-28 09:22:00,77.7,70.7,30.70,South,181,2.0,7.0,79,0.00,,SKC,0.00,VWS V14.01,2013-07-28 14:22:00,
2013-07-28 09:28:00,77.5,70.5,30.70,SSE,159,0.0,7.0,79,0.00,,SKC,0.00,VWS V14.01,2013-07-28 14:28:00,
2013-07-28 09:30:00,75.2,70.4,30.70,SSW,195,0.0,4.0,85,0.00,,SKC,0.00,VWS V14.01,2013-07-28 14:30:00,
2013-07-28 09:34:00,77.5,70.8,30.70,SE,125,0.0,3.0,80,0.00,,SKC,0.00,VWS V14.01,2013-07-28 14:34:00,
2013-07-28 09:40:00,78.1,70.7,30.70,SSE,168,3.0,5.0,78,0.00,,SKC,0.00,VWS V14.01,2013-07-28 14:40:00,
2013-07-28 09:46:00,78.7,70.9,30.70,East,96,0.0,7.0,77,0.00,,SKC,0.00,VWS V14.01,2013-07-28 14:46:00,
2013-07-28 09:52:00,79.4,70.8,30.70,East,94,3.0,7.0,75,0.00,,SKC,0.00,VWS V14.01,2013-07-28 14:52:00,
2013-07-28 09:58:00,79.7,70.7,30.70,South,189,3.0,7.0,74,0.00,,SKC,0.00,VWS V14.01,2013-07-28 14:58:00,
2013-07-28 10:00:00,77.0,70.4,30.70,SSE,165,4.0,7.0,80,0.00,,SKC,0.00,VWS V14.01,2013-07-28 15:00:00,
2013-07-28 10:04:00,79.9,70.1,30.70,SSW,206,6.0,6.0,72,0.00,,SKC,0.00,VWS V14.01,2013-07-28 15:04:00,
2013-07-28 10:10:00,79.9,70.1,30.70,SSE,160,4.0,10.0,72,0.00,,SKC,0.00,VWS V14.01,2013-07-28 15:10:00,
2013-07-28 10:16:00,80.4,69.7,30.70,SE,138,5.0,10.0,70,0.00,,SKC,0.00,VWS V14.01,2013-07-28 15:16:00,
2013-07-28 10:22:00,80.8,70.5,30.70,SSE,153,1.0,10.0,71,0.00,,SKC,0.00,VWS V14.01,2013-07-28 15:22:00,
2013-07-28 10:28:00,81.6,70.0,30.70,SSE,167,3.0,10.0,68,0.00,,SKC,0.00,VWS V14.01,2013-07-28 15:28:00,
2013-07-28 10:30:00,77.5,70.5,30.70,South,175,1.0,7.0,79,0.00,,SKC,0.00,VWS V14.01,2013-07-28 15:30:00,
2013-07-28 10:34:00,81.9,70.3,30.70,South,177,4.0,5.0,68,0.00,,SKC,0.00,VWS V14.01,2013-07-28 15:34:00,
2013-07-28 10:40:00,82.0,70.0,30.70,ESE,105,0.0,9.0,67,0.00,,SKC,0.00,VWS V14.01,2013-07-28 15:40:00,
2013-07-28 10:46:00,82.4,69.0,30.70,SE,131,7.0,9.0,64,0.00,,SKC,0.00,VWS V14.01,2013-07-28 15:46:00,
2013-07-28 10:52:00,82.6,70.1,30.70,ESE,103,4.0,9.0,66,0.00,,SKC,0.00,VWS V14.01,2013-07-28 15:52:00,
2013-07-28 10:58:00,82.5,69.1,30.70,WSW,239,2.0,9.0,64,0.00,,SKC,0.00,VWS V14.01,2013-07-28 15:58:00,
2013-07-28 11:00:00,79.9,70.9,30.70,SSE,166,2.0,7.0,74,0.00,,SKC,0.00,VWS V14.01,2013-07-28 16:00:00,
2013-07-28 11:04:00,82.8,69.8,30.70,ESE,111,1.0,7.0,65,0.00,,SKC,0.00,VWS V14.01,2013-07-28 16:04:00,
2013-07-28 11:10:00,83.1,69.7,30.70,ENE,63,1.0,8.0,64,0.00,,SKC,0.00,VWS V14.01,2013-07-28 16:10:00,
2013-07-28 11:16:00,83.4,70.4,30.70,North,5,1.0,8.0,65,0.00,,SKC,0.00,VWS V14.01,2013-07-28 16:16:00,
2013-07-28 11:22:00,83.5,70.1,30.70,ENE,61,4.0,8.0,64,0.00,,SKC,0.00,VWS V14.01,2013-07-28 16:22:00,
2013-07-28 11:28:00,84.3,70.3,30.70,SSE,165,2.0,8.0,63,0.00,,SKC,0.00,VWS V14.01,2013-07-28 16:28:00,
2013-07-28 11:30:00,81.6,70.4,30.70,ESE,103,3.0,10.0,69,0.00,,SKC,0.00,VWS V14.01,2013-07-28 16:30:00,
2013-07-28 11:34:00,85.1,69.7,30.70,SSE,166,2.0,9.0,60,0.00,,SKC,0.00,VWS V14.01,2013-07-28 16:34:00,
2013-07-28 11:40:00,84.8,69.9,30.70,East,86,5.0,9.0,61,0.00,,SKC,0.00,VWS V14.01,2013-07-28 16:40:00,
2013-07-28 11:46:00,85.3,69.8,30.70,East,80,5.0,10.0,60,0.00,,SKC,0.00,VWS V14.01,2013-07-28 16:46:00,
2013-07-28 11:52:00,85.1,69.7,30.70,SSE,157,3.0,10.0,60,0.00,,SKC,0.00,VWS V14.01,2013-07-28 16:52:00,
2013-07-28 11:58:00,84.6,69.7,30.70,ESE,105,0.0,10.0,61,0.00,,SKC,0.00,VWS V14.01,2013-07-28 16:58:00,
2013-07-28 12:00:00,82.7,69.8,30.70,SE,126,3.0,9.0,65,0.00,,SKC,0.00,VWS V14.01,2013-07-28 17:00:00,
2013-07-28 12:01:00,84.7,69.8,30.70,South,169,2.0,10.0,61,0.00,,SKC,0.00,VWS V14.01,2013-07-28 17:01:00,
2013-07-28 12:07:00,85.1,70.2,30.70,WSW,242,0.0,7.0,61,0.00,,SKC,0.00,VWS V14.01,2013-07-28 17:07:00,
2013-07-28 12:13:00,85.8,69.8,30.70,ESE,117,3.0,8.0,59,0.00,,SKC,0.00,VWS V14.01,2013-07-28 17:13:00,
2013-07-28 12:20:00,86.2,69.7,30.70,ESE,122,5.0,8.0,58,0.00,,SKC,0.00,VWS V14.01,2013-07-28 17:20:00,
2013-07-28 12:26:00,86.0,70.5,30.70,SE,141,3.0,8.0,60,0.00,,SKC,0.00,VWS V14.01,2013-07-28 17:26:00,
2013-07-28 12:30:00,84.7,71.2,30.70,NNE,19,3.0,8.0,64,0.00,,SKC,0.00,VWS V14.01,2013-07-28 17:30:00,
2013-07-28 12:32:00,86.7,71.7,30.70,ESE,111,4.0,9.0,61,0.00,,SKC,0.00,VWS V14.01,2013-07-28 17:32:00,
2013-07-28 12:38:00,86.9,69.8,30.70,NE,37,3.0,7.0,57,0.00,,SKC,0.00,VWS V14.01,2013-07-28 17:38:00,
2013-07-28 12:44:00,87.1,70.0,30.70,ESE,104,2.0,9.0,57,0.00,,SKC,0.00,VWS V14.01,2013-07-28 17:44:00,
2013-07-28 12:50:00,87.0,69.9,30.70,NE,47,1.0,9.0,57,0.00,,SKC,0.00,VWS V14.01,2013-07-28 17:50:00,
2013-07-28 12:56:00,88.0,70.3,30.70,SE,128,8.0,10.0,56,0.00,,SKC,0.00,VWS V14.01,2013-07-28 17:56:00,
2013-07-28 13:00:00,84.7,69.8,30.70,SSE,159,2.0,10.0,61,0.00,,SKC,0.00,VWS V14.01,2013-07-28 18:00:00,
2013-07-28 13:01:00,87.6,69.4,30.70,South,169,3.0,10.0,55,0.00,,SKC,0.00,VWS V14.01,2013-07-28 18:01:00,
2013-07-28 13:08:00,87.7,69.0,30.70,SSE,162,5.0,8.0,54,0.00,,SKC,0.00,VWS V14.01,2013-07-28 18:08:00,
2013-07-28 13:14:00,87.4,69.3,30.70,SE,131,0.0,8.0,55,0.00,,SKC,0.00,VWS V14.01,2013-07-28 18:14:00,
2013-07-28 13:20:00,87.6,69.4,30.70,SSW,206,5.0,8.0,55,0.00,,SKC,0.00,VWS V14.01,2013-07-28 18:20:00,
2013-07-28 13:26:00,88.1,69.9,30.70,SE,131,2.0,8.0,55,0.00,,SKC,0.00,VWS V14.01,2013-07-28 18:26:00,
2013-07-28 13:30:00,86.7,71.7,30.70,ESE,111,4.0,9.0,61,0.00,,SKC,0.00,VWS V14.01,2013-07-28 18:30:00,
2013-07-28 13:31:00,88.5,70.3,30.70,SE,134,7.0,11.0,55,0.00,,SKC,0.00,VWS V14.01,2013-07-28 18:31:00,
2013-07-28 13:38:00,88.7,69.9,30.70,SSE,149,7.0,9.0,54,0.00,,SKC,0.00,VWS V14.01,2013-07-28 18:38:00,
2013-07-28 13:44:00,88.4,69.7,30.70,ESE,103,4.0,10.0,54,0.00,,SKC,0.00,VWS V14.01,2013-07-28 18:44:00,
2013-07-28 13:50:00,88.5,69.8,30.70,SE,126,4.0,10.0,54,0.00,,SKC,0.00,VWS V14.01,2013-07-28 18:50:00,
2013-07-28 13:56:00,88.7,71.0,30.70,SE,143,4.0,10.0,56,0.00,,SKC,0.00,VWS V14.01,2013-07-28 18:56:00,
2013-07-28 14:00:00,87.6,69.4,30.70,South,169,3.0,10.0,55,0.00,,SKC,0.00,VWS V14.01,2013-07-28 19:00:00,
2013-07-28 14:02:00,88.6,70.4,30.70,SE,138,2.0,10.0,55,0.00,,SKC,0.00,VWS V14.01,2013-07-28 19:02:00,
2013-07-28 14:08:00,88.4,70.7,30.70,SE,138,3.0,9.0,56,0.00,,SKC,0.00,VWS V14.01,2013-07-28 19:08:00,
2013-07-28 14:14:00,89.3,71.6,30.70,ESE,123,4.0,9.0,56,0.00,,SKC,0.00,VWS V14.01,2013-07-28 19:14:00,
2013-07-28 14:20:00,89.5,71.2,30.70,SSE,156,3.0,9.0,55,0.00,,SKC,0.00,VWS V14.01,2013-07-28 19:20:00,
2013-07-28 14:29:00,88.5,71.8,30.70,NE,52,4.0,9.0,58,0.00,,SKC,0.00,VWS V14.01,2013-07-28 19:29:00,
2013-07-28 14:30:00,88.8,72.1,30.70,East,98,5.0,9.0,58,0.00,,SKC,0.00,VWS V14.01,2013-07-28 19:30:00,
2013-07-28 14:35:00,89.3,69.4,30.70,South,188,5.0,7.0,52,0.00,,SKC,0.00,VWS V14.01,2013-07-28 19:35:00,
2013-07-28 14:41:00,89.2,69.8,30.70,SSW,198,7.0,9.0,53,0.00,,SKC,0.00,VWS V14.01,2013-07-28 19:41:00,
2013-07-28 14:47:00,88.9,71.7,30.70,ESE,114,5.0,11.0,57,0.00,,SKC,0.00,VWS V14.01,2013-07-28 19:47:00,
2013-07-28 14:53:00,88.8,71.1,30.70,ENE,76,4.0,11.0,56,0.00,,SKC,0.00,VWS V14.01,2013-07-28 19:53:00,
2013-07-28 14:59:00,88.7,71.0,30.70,East,97,0.0,11.0,56,0.00,,SKC,0.00,VWS V14.01,2013-07-28 19:59:00,
2013-07-28 15:00:00,88.6,70.4,30.70,SE,138,2.0,10.0,55,0.00,,SKC,0.00,VWS V14.01,2013-07-28 20:00:00,
2013-07-28 15:05:00,88.4,70.7,30.70,SSE,150,2.0,9.0,56,0.00,,SKC,0.00,VWS V14.01,2013-07-28 20:05:00,
2013-07-28 15:11:00,89.0,70.8,30.70,South,183,6.0,9.0,55,0.00,,SKC,0.00,VWS V14.01,2013-07-28 20:11:00,
2013-07-28 15:17:00,88.5,70.3,30.70,SSE,157,4.0,9.0,55,0.00,,SKC,0.00,VWS V14.01,2013-07-28 20:17:00,
2013-07-28 15:23:00,88.1,71.0,30.70,ESE,117,0.0,11.0,57,0.00,,SKC,0.00,VWS V14.01,2013-07-28 20:23:00,
2013-07-28 15:29:00,89.0,72.3,30.70,South,189,7.0,11.0,58,0.00,,SKC,0.00,VWS V14.01,2013-07-28 20:29:00,
2013-07-28 15:30:00,88.8,72.1,30.70,East,98,5.0,9.0,58,0.00,,SKC,0.00,VWS V14.01,2013-07-28 20:30:00,
2013-07-28 15:35:00,90.3,70.3,30.70,South,171,6.0,9.0,52,0.00,,SKC,0.00,VWS V14.01,2013-07-28 20:35:00,
2013-07-28 15:42:00,90.2,70.2,30.70,East,98,2.0,9.0,52,0.00,,SKC,0.00,VWS V14.01,2013-07-28 20:42:00,
2013-07-28 15:48:00,90.6,70.6,30.70,SSE,162,4.0,9.0,52,0.00,,SKC,0.00,VWS V14.01,2013-07-28 20:48:00,
2013-07-28 15:54:00,90.7,70.1,30.70,ESE,122,5.0,9.0,51,0.00,,SKC,0.00,VWS V14.01,2013-07-28 20:54:00,
2013-07-28 16:00:00,90.2,70.2,30.70,ESE,121,4.0,9.0,52,0.00,,SKC,0.00,VWS V14.01,2013-07-28 21:00:00,
2013-07-28 16:06:00,90.8,70.2,18.19,SE,128,5.0,10.0,51,0.00,,SKC,0.00,VWS V14.01,2013-07-28 21:06:00,
2013-07-28 16:12:00,91.1,69.9,18.19,SW,221,4.0,10.0,50,0.00,,SKC,0.00,VWS V14.01,2013-07-28 21:12:00,
2013-07-28 16:18:00,91.0,69.8,18.19,South,178,2.0,11.0,50,0.00,,SKC,0.00,VWS V14.01,2013-07-28 21:18:00,
2013-07-28 16:24:00,91.1,69.9,18.27,ESE,105,0.0,11.0,50,0.00,,SKC,0.00,VWS V14.01,2013-07-28 21:24:00,
2013-07-28 16:30:00,90.8,69.6,18.27,SSE,165,2.0,11.0,50,0.00,,SKC,0.00,VWS V14.01,2013-07-28 21:30:00,
2013-07-28 16:36:00,90.8,69.6,18.27,South,176,2.0,8.0,50,0.00,,SKC,0.00,VWS V14.01,2013-07-28 21:36:00,
2013-07-28 16:42:00,90.9,70.3,18.27,SW,214,4.0,8.0,51,0.00,,SKC,0.00,VWS V14.01,2013-07-28 21:42:00,
2013-07-28 16:48:00,91.5,70.2,18.27,South,175,5.0,8.0,50,0.00,,SKC,0.00,VWS V14.01,2013-07-28 21:48:00,
2013-07-28 16:54:00,91.1,69.9,18.27,SSE,167,2.0,8.0,50,0.00,,SKC,0.00,VWS V14.01,2013-07-28 21:54:00,
2013-07-28 17:00:00,91.3,69.5,18.27,South,178,3.0,8.0,49,0.00,,SKC,0.00,VWS V14.01,2013-07-28 22:00:00,
2013-07-28 17:06:00,91.5,69.7,18.27,South,170,1.0,6.0,49,0.00,,SKC,0.00,VWS V14.01,2013-07-28 22:06:00,
2013-07-28 17:12:00,91.4,69.6,18.27,SSE,152,1.0,9.0,49,0.00,,SKC,0.00,VWS V14.01,2013-07-28 22:12:00,
2013-07-28 17:18:00,91.7,70.4,18.27,ENE,74,3.0,10.0,50,0.00,,SKC,0.00,VWS V14.01,2013-07-28 22:18:00,
2013-07-28 17:24:00,91.3,70.1,18.27,South,176,2.0,10.0,50,0.00,,SKC,0.00,VWS V14.01,2013-07-28 22:24:00,
2013-07-28 17:30:00,91.0,69.8,18.27,SE,130,3.0,10.0,50,0.00,,SKC,0.00,VWS V14.01,2013-07-28 22:30:00,
2013-07-28 17:36:00,91.0,70.4,18.27,ESE,121,1.0,5.0,51,0.00,,SKC,0.00,VWS V14.01,2013-07-28 22:36:00,
2013-07-28 17:42:00,91.7,70.4,18.27,South,171,6.0,7.0,50,0.00,,SKC,0.00,VWS V14.01,2013-07-28 22:42:00,
2013-07-28 17:48:00,91.8,70.5,18.27,South,173,1.0,9.0,50,0.00,,SKC,0.00,VWS V14.01,2013-07-28 22:48:00,
2013-07-28 17:54:00,91.9,70.0,18.27,South,190,3.0,10.0,49,0.00,,SKC,0.00,VWS V14.01,2013-07-28 22:54:00,
2013-07-28 18:00:00,91.7,69.8,18.27,SSE,157,4.0,10.0,49,0.00,,SKC,0.00,VWS V14.01,2013-07-28 23:00:00,
2013-07-28 18:06:00,91.2,70.0,18.27,ENE,76,3.0,10.0,50,0.00,,SKC,0.00,VWS V14.01,2013-07-28 23:06:00,
2013-07-28 18:12:00,91.0,70.4,18.27,East,100,0.0,10.0,51,0.00,,SKC,0.00,VWS V14.01,2013-07-28 23:12:00,
2013-07-28 18:18:00,90.7,70.1,18.27,SE,132,4.0,10.0,51,0.00,,SKC,0.00,VWS V14.01,2013-07-28 23:18:00,
2013-07-28 18:24:00,90.9,70.3,18.27,East,90,2.0,10.0,51,0.00,,SKC,0.00,VWS V14.01,2013-07-28 23:24:00,
2013-07-28 18:30:00,91.0,71.5,18.27,ESE,108,3.0,10.0,53,0.00,,SKC,0.00,VWS V14.01,2013-07-28 23:30:00,
2013-07-28 18:36:00,90.9,72.0,18.27,SE,135,0.0,10.0,54,0.00,,SKC,0.00,VWS V14.01,2013-07-28 23:36:00,
2013-07-28 18:42:00,90.8,71.3,18.27,SSE,157,3.0,10.0,53,0.00,,SKC,0.00,VWS V14.01,2013-07-28 23:42:00,
2013-07-28 18:48:00,89.9,71.6,18.27,SE,138,3.0,13.0,55,0.00,,SKC,0.00,VWS V14.01,2013-07-28 23:48:00,
2013-07-28 18:54:00,89.3,71.6,18.27,East,84,6.0,13.0,56,0.00,,SKC,0.00,VWS V14.01,2013-07-28 23:54:00,
2013-07-28 19:00:00,89.2,72.0,18.27,ENE,59,4.0,13.0,57,0.00,,SKC,0.00,VWS V14.01,2013-07-29 00:00:00,
2013-07-28 19:06:00,89.2,71.5,18.27,NE,53,1.0,10.0,56,0.00,,SKC,0.00,VWS V14.01,2013-07-29 00:06:00,
2013-07-28 19:13:00,89.1,71.4,18.27,ESE,104,3.0,10.0,56,0.00,,SKC,0.00,VWS V14.01,2013-07-29 00:13:00,
2013-07-28 19:19:00,88.7,71.5,18.27,SSE,155,5.0,11.0,57,0.00,,SKC,0.00,VWS V14.01,2013-07-29 00:19:00,
2013-07-28 19:25:00,88.4,71.8,18.27,ESE,108,5.0,11.0,58,0.00,,SKC,0.00,VWS V14.01,2013-07-29 00:25:00,
2013-07-28 19:30:00,91.0,71.5,18.27,SE,139,3.0,10.0,53,0.00,,SKC,0.00,VWS V14.01,2013-07-29 00:30:00,
2013-07-28 19:31:00,88.2,71.6,18.27,SE,128,4.0,11.0,58,0.00,,SKC,0.00,VWS V14.01,2013-07-29 00:31:00,
2013-07-28 19:37:00,88.0,71.4,18.27,ESE,104,2.0,7.0,58,0.00,,SKC,0.00,VWS V14.01,2013-07-29 00:37:00,
2013-07-28 19:43:00,87.9,71.3,18.27,East,82,7.0,9.0,58,0.00,,SKC,0.00,VWS V14.01,2013-07-29 00:43:00,
2013-07-28 19:49:00,87.9,71.3,18.27,SE,136,6.0,9.0,58,0.00,,SKC,0.00,VWS V14.01,2013-07-29 00:49:00,
2013-07-28 19:55:00,87.7,71.6,18.27,ENE,71,3.0,9.0,59,0.00,,SKC,0.00,VWS V14.01,2013-07-29 00:55:00,
2013-07-28 20:00:00,89.2,72.0,18.27,East,90,6.0,13.0,57,0.00,,SKC,0.00,VWS V14.01,2013-07-29 01:00:00,
2013-07-28 20:01:00,87.5,71.4,18.27,ENE,69,4.0,9.0,59,0.00,,SKC,0.00,VWS V14.01,2013-07-29 01:01:00,
2013-07-28 20:07:00,87.2,71.6,18.27,East,83,3.0,7.0,60,0.00,,SKC,0.00,VWS V14.01,2013-07-29 01:07:00,
2013-07-28 20:13:00,86.8,71.8,18.27,South,180,0.0,7.0,61,0.00,,SKC,0.00,VWS V14.01,2013-07-29 01:13:00,
2013-07-28 20:19:00,86.5,71.5,18.27,SE,130,2.0,7.0,61,0.00,,SKC,0.00,VWS V14.01,2013-07-29 01:19:00,
2013-07-28 20:25:00,86.3,71.8,18.27,East,94,2.0,7.0,62,0.00,,SKC,0.00,VWS V14.01,2013-07-29 01:25:00,
2013-07-28 20:30:00,88.1,71.5,18.27,ENE,71,4.0,11.0,58,0.00,,SKC,0.00,VWS V14.01,2013-07-29 01:30:00,
2013-07-28 20:31:00,86.0,71.5,18.27,East,92,5.0,7.0,62,0.00,,SKC,0.00,VWS V14.01,2013-07-29 01:31:00,
2013-07-28 20:37:00,85.9,71.8,18.27,East,101,2.0,5.0,63,0.00,,SKC,0.00,VWS V14.01,2013-07-29 01:37:00,
2013-07-28 20:43:00,85.7,71.7,18.27,SSE,162,1.0,5.0,63,0.00,,SKC,0.00,VWS V14.01,2013-07-29 01:43:00,
2013-07-28 20:49:00,85.6,71.6,18.27,SSE,157,0.0,6.0,63,0.00,,SKC,0.00,VWS V14.01,2013-07-29 01:49:00,
2013-07-28 20:55:00,85.5,71.5,18.27,ESE,121,1.0,6.0,63,0.00,,SKC,0.00,VWS V14.01,2013-07-29 01:55:00,
2013-07-28 21:00:00,87.4,71.3,18.27,ENE,77,5.0,9.0,59,0.00,,SKC,0.00,VWS V14.01,2013-07-29 02:00:00,
2013-07-28 21:01:00,85.4,71.4,21.99,ESE,122,3.0,6.0,63,0.00,,SKC,0.00,VWS V14.01,2013-07-29 02:01:00,
2013-07-28 21:07:00,85.1,71.1,21.99,ESE,110,3.0,4.0,63,0.00,,SKC,0.00,VWS V14.01,2013-07-29 02:07:00,
2013-07-28 21:17:00,84.6,71.1,21.99,East,101,2.0,5.0,64,0.00,,SKC,0.00,VWS V14.01,2013-07-29 02:17:00,
2013-07-28 21:23:00,84.3,71.3,21.99,ESE,103,1.0,5.0,65,0.00,,SKC,0.00,VWS V14.01,2013-07-29 02:23:00,
2013-07-28 21:29:00,83.9,71.3,21.99,East,98,0.0,5.0,66,0.00,,SKC,0.00,VWS V14.01,2013-07-29 02:29:00,
2013-07-28 21:30:00,83.8,71.2,21.99,East,95,1.0,5.0,66,0.00,,SKC,0.00,VWS V14.01,2013-07-29 02:30:00,
2013-07-28 21:35:00,83.7,71.1,21.99,East,99,0.0,3.0,66,0.00,,SKC,0.00,VWS V14.01,2013-07-29 02:35:00,
2013-07-28 21:41:00,83.5,71.4,21.99,East,101,0.0,5.0,67,0.00,,SKC,0.00,VWS V14.01,2013-07-29 02:41:00,
2013-07-28 21:47:00,83.4,71.3,21.99,ESE,103,2.0,5.0,67,0.00,,SKC,0.00,VWS V14.01,2013-07-29 02:47:00,
2013-07-28 21:53:00,83.3,71.2,21.99,ESE,117,1.0,5.0,67,0.00,,SKC,0.00,VWS V14.01,2013-07-29 02:53:00,
2013-07-28 21:59:00,83.3,71.6,21.99,ESE,106,2.0,5.0,68,0.00,,SKC,0.00,VWS V14.01,2013-07-29 02:59:00,
2013-07-28 22:00:00,83.3,71.6,21.99,ESE,104,1.0,5.0,68,0.00,,SKC,0.00,VWS V14.01,2013-07-29 03:00:00,
2013-07-28 22:05:00,83.3,71.6,21.99,SE,130,2.0,5.0,68,0.00,,SKC,0.00,VWS V14.01,2013-07-29 03:05:00,
2013-07-28 22:11:00,83.2,71.6,26.65,East,96,3.0,5.0,68,0.00,,SKC,0.00,VWS V14.01,2013-07-29 03:11:00,
2013-07-28 22:20:00,83.3,71.6,26.65,ESE,107,0.0,7.0,68,0.00,,SKC,0.00,VWS V14.01,2013-07-29 03:20:00,
2013-07-28 22:26:00,83.3,71.6,26.65,ESE,113,3.0,7.0,68,0.00,,SKC,0.00,VWS V14.01,2013-07-29 03:26:00,
2013-07-28 22:30:00,83.8,71.2,21.99,East,95,1.0,5.0,66,0.00,,SKC,0.00,VWS V14.01,2013-07-29 03:30:00,
2013-07-28 22:32:00,83.4,72.2,26.65,SE,125,3.0,4.0,69,0.00,,SKC,0.00,VWS V14.01,2013-07-29 03:32:00,
2013-07-28 22:38:00,83.4,72.2,26.65,SE,142,3.0,7.0,69,0.00,,SKC,0.00,VWS V14.01,2013-07-29 03:38:00,
2013-07-28 22:45:00,83.2,72.0,26.65,East,82,5.0,7.0,69,0.00,,SKC,0.00,VWS V14.01,2013-07-29 03:45:00,
2013-07-28 22:51:00,83.2,72.0,20.98,ESE,115,3.0,7.0,69,0.00,,SKC,0.00,VWS V14.01,2013-07-29 03:51:00,
2013-07-28 23:00:00,83.3,71.6,21.99,ESE,104,1.0,5.0,68,0.00,,SKC,0.00,VWS V14.01,2013-07-29 04:00:00,
2013-07-28 23:02:00,83.2,72.0,20.98,SSE,167,4.0,7.0,69,0.00,,SKC,0.00,VWS V14.01,2013-07-29 04:02:00,
2013-07-28 23:03:00,83.2,72.0,20.98,SSE,168,2.0,5.0,69,0.00,,SKC,0.00,VWS V14.01,2013-07-29 04:03:00,
2013-07-28 23:06:00,83.2,72.0,20.98,ESE,105,2.0,7.0,69,0.00,,SKC,0.00,VWS V14.01,2013-07-29 04:06:00,
2013-07-28 23:09:00,83.1,71.9,20.98,SSE,158,1.0,7.0,69,0.00,,SKC,0.00,VWS V14.01,2013-07-29 04:09:00,
2013-07-28 23:15:00,82.9,72.1,20.98,SE,126,4.0,7.0,70,0.00,,SKC,0.00,VWS V14.01,2013-07-29 04:15:00,
2013-07-28 23:21:00,82.8,72.0,20.98,SE,133,3.0,7.0,70,0.00,,SKC,0.00,VWS V14.01,2013-07-29 04:21:00,
2013-07-28 23:27:00,82.7,71.9,20.98,SE,143,1.0,7.0,70,0.00,,SKC,0.00,VWS V14.01,2013-07-29 04:27:00,
2013-07-28 23:30:00,82.6,72.2,20.98,SSE,159,3.0,7.0,71,0.00,,SKC,0.00,VWS V14.01,2013-07-29 04:30:00,
2013-07-28 23:33:00,82.5,72.2,20.98,SSE,159,2.0,3.0,71,0.00,,SKC,0.00,VWS V14.01,2013-07-29 04:33:00,
2013-07-28 23:39:00,82.3,72.0,20.98,SSE,165,0.0,5.0,71,0.00,,SKC,0.00,VWS V14.01,2013-07-29 04:39:00,
2013-07-28 23:42:00,82.3,72.0,20.98,ESE,103,2.0,5.0,71,0.00,,SKC,0.00,VWS V14.01,2013-07-29 04:42:00,
2013-07-28 23:48:00,82.1,72.2,20.98,SSE,165,2.0,5.0,72,0.00,,SKC,0.00,VWS V14.01,2013-07-29 04:48:00,
2013-07-28 23:54:00,82.0,72.5,20.98,South,169,3.0,7.0,73,0.00,,SKC,0.00,VWS V14.01,2013-07-29 04:54:00,